STARLINK-5613, 55752

Orbit data source: Space-Track

STARLINK-5613, 55752 is a payload satellite owned by SpaceX/Seattle (US) in LEO that was launched on Fri, 03 Mar 2023 UTC via an FALCON 9 launch vehicle from the Air Force Western Test Range (AFWTR). Payload-class satellites include a variety of spacecraft equipped with specific instruments for various scientific and technological missions. These include communications satellites like Starlink; space stations such as the ISS; scientific satellites like the Hubble; Earth observation satellites from companies like Planet Labs, Umbra, and HawkEye 360; GPS; miniature CubeSats for education and research; and military/defense satellites.

Loading next visibility...
Identifier
55752, 2023-028M
Orbit
LEO
Country
Flag of USUS
Related business
Manufacturer
SpaceX/Seattle
Mission
Operational Commercial Communications
Bus & Motor
STARLINK, Unknown motor
Mass
305 kg wet, ~290 kg dry
Launch date (UTC)
2023-03-03 (3 years ago)
Launch vehicle
FALCON 9
Launch site
Air Force Western Test Range (AFWTR)
Object type
Payload
Rocket body
Debris
Shape & HBR
Box + 1 Pan, 10.1 m
Radar Cross Section
11.087 m², Large (>1 m²)

Expand to show TLE details & history
Last TLE update: 3 days ago

TLE from 3 days ago
0 STARLINK-5613
1 55752U 23028M   26170.89993716  .00000258  00000-0  29402-4 0  9993
2 55752  69.9995 346.6117 0003032 269.0782  91.0030 14.98340808181359
Epoch: 2026-06-19T21:35Z
TLE epoch observation values (Epoch: 2026-06-19T21:35:54.570Z)
Latitude
-0°
Longitude
114.51204°
Altitude
574.484 km
Speed
7.574 km/s
True Right ascension
23h 06m 26s
True Declination
0° 00' 00"
Sunlit
Object was in daylight at epoch
Visualization orbit readout
Latitude
Unknown
Longitude
Unknown
Altitude
Unknown
Speed
Unknown
Apparent Right ascension
Unknown
Apparent Declination
Unknown
Sunlit
N/A
Visualization observer readout
Local Sidereal Time
21:24:27
Azimuth
Unknown
Elevation
Unknown
Doppler factor
Unknown
Orbital elements
Apogee altitude
572.077 km
Perigee altitude
567.864 km
Semi-major axis
6,948.108 km
Eccentricity
0.0003
Inclination
69.9995°
RAAN
346.6117°
Arg. of periapsis
269.0782°
True anomaly
91.03774°
Mean anomaly
91.003°
Eccentric anomaly
91.02037°
Mean motion
3.74751 °/min
Orbital period
96.06 mins
BSTAR
0.000029402
Loading maneuver chart data...
Computing Atmospheric mass density...
Loading historical data...
Loading historical data...
Loading historical data...
Loading historical data...
Loading historical data...
Loading historical data...
Loading historical data...

Documentation

Showing up to 5 results
|